| time (UTC) | temp C | wind direction | speed KPH | gust KPH | rain 1hr cm | rain 24hr cm | rain mn cm | humidity % | barometer mb |
| 20260502161024 | 12 | 82 | 1.6 | 4.8 | 0.03 | 0.61 | 0.61 | 86 | 1013.1 |
| 20260502160503 | 12 | 83 | 1.6 | 3.2 | 0.03 | 0.61 | 0.61 | 86 | 1013.3 |
| 20260502152003 | 13 | 77 | 0.0 | 4.8 | 0.05 | 0.58 | 0.58 | 86 | 1013.4 |
| 20260502151524 | 13 | 67 | 1.6 | 4.8 | 0.05 | 0.58 | 0.58 | 86 | 1013.4 |
| 20260502151024 | 12 | 60 | 1.6 | 4.8 | 0.08 | 0.58 | 0.58 | 86 | 1013.4 |
| 20260502150503 | 12 | 50 | 1.6 | 6.4 | 0.10 | 0.58 | 0.58 | 85 | 1013.5 |
| 20260502130503 | 15 | 151 | 1.6 | 16.1 | 0.00 | 0.00 | 0.00 | 76 | 1016.2 |
| 20260502123503 | 15 | 205 | 0.0 | 3.2 | 0.00 | 0.00 | 0.00 | 73 | 1015.7 |
| 20260502123003 | 15 | 204 | 0.0 | 3.2 | 0.00 | 0.00 | 0.00 | 73 | 1015.5 |
| 20260502122503 | 16 | 202 | 0.0 | 3.2 | 0.00 | 0.00 | 0.00 | 73 | 1015.6 |
| 20260502122003 | 16 | 75 | 0.0 | 1.6 | 0.00 | 0.00 | 0.00 | 73 | 1015.8 |
| 20260502121503 | 16 | 75 | 1.6 | 4.8 | 0.00 | 0.00 | 0.00 | 73 | 1015.9 |
| 20260502121003 | 16 | 84 | 1.6 | 4.8 | 0.00 | 0.00 | 0.00 | 73 | 1016.0 |
| 20260502120524 | 16 | 95 | 1.6 | 4.8 | 0.00 | 0.00 | 0.00 | 73 | 1016.2 |
| 20260502115503 | 16 | 112 | 1.6 | 6.4 | 0.00 | 0.00 | 0.00 | 72 | 1016.3 |
| 20260502115003 | 17 | 120 | 1.6 | 4.8 | 0.00 | 0.00 | 0.00 | 72 | 1016.4 |
| 20260502114503 | 17 | 110 | 1.6 | 4.8 | 0.00 | 0.00 | 0.00 | 72 | 1016.4 |
| 20260502114003 | 17 | 103 | 1.6 | 4.8 | 0.00 | 0.00 | 0.00 | 72 | 1016.3 |
| 20260502113503 | 17 | 106 | 3.2 | 9.7 | 0.00 | 0.00 | 0.00 | 72 | 1016.4 |
| 20260502113003 | 17 | 110 | 3.2 | 9.7 | 0.00 | 0.00 | 0.00 | 72 | 1016.6 |
| 20260502112524 | 17 | 105 | 1.6 | 6.4 | 0.00 | 0.00 | 0.00 | 73 | 1016.6 |
| 20260502112003 | 17 | 93 | 1.6 | 6.4 | 0.00 | 0.00 | 0.00 | 73 | 1016.7 |
| 20260502111503 | 17 | 100 | 3.2 | 6.4 | 0.00 | 0.00 | 0.00 | 73 | 1016.9 |
| 20260502111003 | 17 | 113 | 1.6 | 6.4 | 0.00 | 0.00 | 0.00 | 73 | 1016.9 |
| 20260502110503 | 17 | 114 | 1.6 | 4.8 | 0.00 | 0.00 | 0.00 | 73 | 1016.9 |
| 20260502110003 | 17 | 104 | 1.6 | 6.4 | 0.00 | 0.00 | 0.00 | 73 | 1016.9 |
| 20260502105503 | 17 | 103 | 3.2 | 9.7 | 0.00 | 0.00 | 0.00 | 74 | 1017.0 |
| 20260502105003 | 17 | 103 | 1.6 | 9.7 | 0.00 | 0.00 | 0.00 | 75 | 1017.0 |
| 20260502104524 | 17 | 93 | 1.6 | 4.8 | 0.00 | 0.00 | 0.00 | 75 | 1017.2 |
| 20260502104003 | 16 | 94 | 1.6 | 4.8 | 0.00 | 0.00 | 0.00 | 76 | 1017.3 |
| 20260502103503 | 16 | 102 | 1.6 | 6.4 | 0.00 | 0.00 | 0.00 | 76 | 1017.2 |
| 20260502103003 | 16 | 96 | 3.2 | 6.4 | 0.00 | 0.00 | 0.00 | 77 | 1017.3 |
| 20260502102503 | 16 | 79 | 3.2 | 6.4 | 0.00 | 0.00 | 0.00 | 77 | 1017.3 |
| 20260502102003 | 16 | 76 | 3.2 | 6.4 | 0.00 | 0.00 | 0.00 | 77 | 1017.4 |
| 20260502101503 | 16 | 88 | 3.2 | 6.4 | 0.00 | 0.00 | 0.00 | 77 | 1017.4 |
| 20260502101003 | 16 | 99 | 3.2 | 4.8 | 0.00 | 0.00 | 0.00 | 77 | 1017.6 |
| 20260502100524 | 16 | 106 | 1.6 | 4.8 | 0.00 | 0.00 | 0.00 | 77 | 1017.6 |
| 20260502091501 | 15 | 107 | 4.8 | 11.3 | 0.00 | 0.00 | 0.00 | 84 | 1018.1 |
| 20260502091001 | 15 | 104 | 4.8 | 11.3 | 0.00 | 0.00 | 0.00 | 84 | 1018.3 |
| 20260502090501 | 15 | 113 | 3.2 | 11.3 | 0.00 | 0.00 | 0.00 | 85 | 1018.3 |
| 20260502071501 | 11 | 353 | 3.2 | 8.0 | 0.00 | 0.00 | 0.00 | 88 | 1019.3 |
| 20260502071001 | 10 | 359 | 3.2 | 8.0 | 0.00 | 0.00 | 0.00 | 88 | 1019.2 |
| 20260502070523 | 10 | 7 | 3.2 | 6.4 | 0.00 | 0.00 | 0.00 | 88 | 1019.1 |
| 20260502070002 | 10 | 7 | 3.2 | 8.0 | 0.00 | 0.00 | 0.00 | 88 | 1019.2 |
| 20260502065502 | 10 | 6 | 3.2 | 8.0 | 0.00 | 0.00 | 0.00 | 88 | 1019.3 |
| 20260502065001 | 10 | 5 | 3.2 | 8.0 | 0.00 | 0.00 | 0.00 | 88 | 1019.4 |
| 20260502064502 | 10 | 5 | 3.2 | 8.0 | 0.00 | 0.00 | 0.00 | 88 | 1019.4 |
| 20260502064001 | 10 | 6 | 3.2 | 8.0 | 0.00 | 0.00 | 0.00 | 88 | 1019.4 |
| 20260502063501 | 9 | 10 | 3.2 | 6.4 | 0.00 | 0.00 | 0.00 | 88 | 1019.4 |
| 20260502063001 | 9 | 17 | 1.6 | 8.0 | 0.00 | 0.00 | 0.00 | 88 | 1019.3 |
| 20260502062522 | 9 | 10 | 3.2 | 8.0 | 0.00 | 0.00 | 0.00 | 88 | 1019.4 |
| 20260502062001 | 9 | 359 | 1.6 | 6.4 | 0.00 | 0.00 | 0.00 | 87 | 1019.4 |
| 20260502061502 | 8 | 352 | 1.6 | 6.4 | 0.00 | 0.00 | 0.00 | 87 | 1019.3 |
| 20260502061001 | 8 | 345 | 0.0 | 4.8 | 0.00 | 0.00 | 0.00 | 87 | 1019.1 |
| 20260502060501 | 8 | 342 | 1.6 | 4.8 | 0.00 | 0.00 | 0.00 | 87 | 1018.9 |
| 20260502060001 | 8 | 342 | 1.6 | 4.8 | 0.00 | 0.00 | 0.00 | 87 | 1018.9 |
| 20260502055501 | 8 | 351 | 1.6 | 6.4 | 0.00 | 0.00 | 0.00 | 87 | 1018.7 |
| 20260502055001 | 8 | 6 | 0.0 | 6.4 | 0.00 | 0.00 | 0.00 | 87 | 1018.9 |
| 20260502054501 | 8 | 0 | 0.0 | 0.0 | 0.00 | 0.00 | 0.00 | 87 | 1019.1 |
| 20260502054001 | 8 | 0 | 0.0 | 0.0 | 0.00 | 0.00 | 0.00 | 87 | 1019.2 |
| 20260502053501 | 8 | 5 | 0.0 | 1.6 | 0.00 | 0.00 | 0.00 | 87 | 1019.2 |
| 20260502053002 | 8 | 5 | 0.0 | 1.6 | 0.00 | 0.00 | 0.00 | 87 | 1019.3 |
| 20260502052501 | 8 | 5 | 0.0 | 1.6 | 0.00 | 0.00 | 0.00 | 87 | 1019.4 |
| 20260502052002 | 8 | 5 | 0.0 | 3.2 | 0.00 | 0.00 | 0.00 | 87 | 1019.4 |
| 20260502051501 | 8 | 5 | 1.6 | 4.8 | 0.00 | 0.00 | 0.00 | 87 | 1019.4 |
| 20260502051001 | 8 | 5 | 1.6 | 4.8 | 0.00 | 0.00 | 0.00 | 87 | 1019.4 |
| 20260502050501 | 8 | 1 | 1.6 | 6.4 | 0.00 | 0.00 | 0.00 | 87 | 1019.3 |
| 20260502050022 | 8 | 13 | 1.6 | 6.4 | 0.00 | 0.00 | 0.00 | 87 | 1019.3 |
| 20260502045501 | 8 | 19 | 1.6 | 4.8 | 0.00 | 0.00 | 0.00 | 87 | 1019.3 |
| 20260502045001 | 8 | 4 | 0.0 | 4.8 | 0.00 | 0.00 | 0.00 | 86 | 1019.2 |
| 20260502044501 | 8 | 0 | 0.0 | 0.0 | 0.00 | 0.00 | 0.00 | 86 | 1019.3 |
| 20260502044001 | 8 | 0 | 0.0 | 0.0 | 0.00 | 0.00 | 0.00 | 86 | 1019.3 |
| 20260502043501 | 8 | 0 | 0.0 | 0.0 | 0.00 | 0.00 | 0.00 | 86 | 1019.2 |
| 20260502043001 | 8 | 0 | 0.0 | 0.0 | 0.00 | 0.00 | 0.00 | 86 | 1019.3 |
| 20260502042501 | 9 | 0 | 0.0 | 0.0 | 0.00 | 0.00 | 0.00 | 86 | 1019.2 |
| 20260502042001 | 9 | 0 | 0.0 | 0.0 | 0.00 | 0.00 | 0.00 | 86 | 1019.2 |
| 20260502041502 | 9 | 0 | 0.0 | 0.0 | 0.00 | 0.00 | 0.00 | 86 | 1019.3 |
| 20260502041023 | 9 | 0 | 0.0 | 0.0 | 0.00 | 0.00 | 0.00 | 86 | 1019.2 |
| 20260502040501 | 9 | 0 | 0.0 | 0.0 | 0.00 | 0.00 | 0.00 | 86 | 1019.2 |
| 20260502040023 | 9 | 0 | 0.0 | 0.0 | 0.00 | 0.00 | 0.00 | 86 | 1019.3 |
| 20260502035502 | 10 | 0 | 0.0 | 0.0 | 0.00 | 0.00 | 0.00 | 86 | 1019.3 |
| 20260502035022 | 10 | 0 | 0.0 | 0.0 | 0.00 | 0.00 | 0.00 | 86 | 1019.2 |
| 20260502034522 | 10 | 0 | 0.0 | 0.0 | 0.00 | 0.00 | 0.00 | 86 | 1019.2 |
| 20260502034001 | 10 | 0 | 0.0 | 0.0 | 0.00 | 0.00 | 0.00 | 86 | 1019.2 |
| 20260502033501 | 10 | 0 | 0.0 | 0.0 | 0.00 | 0.00 | 0.00 | 86 | 1019.4 |
| 20260502033001 | 10 | 0 | 0.0 | 0.0 | 0.00 | 0.00 | 0.00 | 86 | 1019.4 |
| 20260502032501 | 10 | 345 | 1.6 | 8.0 | 0.00 | 0.00 | 0.00 | 86 | 1019.5 |
| 20260502032001 | 10 | 344 | 3.2 | 8.0 | 0.00 | 0.00 | 0.00 | 86 | 1019.4 |
| 20260502031501 | 10 | 343 | 3.2 | 8.0 | 0.00 | 0.00 | 0.00 | 86 | 1019.6 |
| 20260502031002 | 10 | 344 | 3.2 | 9.7 | 0.00 | 0.00 | 0.00 | 86 | 1019.5 |
| 20260502030502 | 10 | 348 | 4.8 | 9.7 | 0.00 | 0.00 | 0.00 | 86 | 1019.5 |
| 20260502030002 | 10 | 350 | 4.8 | 9.7 | 0.00 | 0.00 | 0.00 | 86 | 1019.5 |
| 20260502025502 | 10 | 347 | 4.8 | 9.7 | 0.00 | 0.00 | 0.00 | 86 | 1019.6 |
| 20260502025023 | 10 | 344 | 4.8 | 9.7 | 0.00 | 0.00 | 0.00 | 86 | 1019.5 |
| 20260502024502 | 10 | 345 | 4.8 | 9.7 | 0.00 | 0.00 | 0.00 | 86 | 1019.5 |
| 20260502024022 | 10 | 353 | 3.2 | 8.0 | 0.00 | 0.00 | 0.00 | 86 | 1019.6 |
| 20260502023501 | 10 | 350 | 3.2 | 6.4 | 0.00 | 0.00 | 0.00 | 86 | 1019.7 |
| 20260502023001 | 10 | 327 | 1.6 | 4.8 | 0.00 | 0.00 | 0.00 | 86 | 1019.9 |
| 20260502022502 | 10 | 325 | 1.6 | 4.8 | 0.00 | 0.00 | 0.00 | 86 | 1020.0 |
| 20260502022002 | 10 | 328 | 0.0 | 3.2 | 0.00 | 0.00 | 0.00 | 86 | 1020.1 |
| 20260502021502 | 10 | 335 | 1.6 | 6.4 | 0.00 | 0.00 | 0.00 | 86 | 1020.2 |
| 20260502021001 | 10 | 334 | 4.8 | 6.4 | 0.00 | 0.00 | 0.00 | 86 | 1020.2 |
| 20260502020501 | 10 | 341 | 3.2 | 6.4 | 0.00 | 0.00 | 0.00 | 86 | 1020.2 |
| 20260502020022 | 10 | 353 | 1.6 | 6.4 | 0.00 | 0.00 | 0.00 | 85 | 1020.3 |
| 20260502015501 | 10 | 0 | 0.0 | 0.0 | 0.00 | 0.00 | 0.00 | 85 | 1020.3 |
| 20260502015002 | 10 | 0 | 0.0 | 0.0 | 0.00 | 0.00 | 0.00 | 85 | 1020.4 |
| 20260502014502 | 10 | 0 | 0.0 | 0.0 | 0.00 | 0.00 | 0.00 | 85 | 1020.4 |
| 20260502014002 | 10 | 0 | 0.0 | 0.0 | 0.00 | 0.00 | 0.00 | 85 | 1020.3 |
| 20260502013523 | 10 | 0 | 0.0 | 0.0 | 0.00 | 0.00 | 0.00 | 85 | 1020.4 |
| 20260502013002 | 10 | 0 | 0.0 | 0.0 | 0.00 | 0.00 | 0.00 | 85 | 1020.5 |
| 20260502012523 | 10 | 0 | 0.0 | 0.0 | 0.00 | 0.00 | 0.00 | 85 | 1020.5 |
| 20260502012001 | 10 | 0 | 0.0 | 0.0 | 0.00 | 0.00 | 0.00 | 84 | 1020.5 |
| 20260502011502 | 10 | 0 | 0.0 | 0.0 | 0.00 | 0.00 | 0.00 | 85 | 1020.5 |
| 20260502011002 | 10 | 0 | 0.0 | 0.0 | 0.00 | 0.00 | 0.00 | 85 | 1020.4 |
| 20260502010522 | 10 | 182 | 0.0 | 1.6 | 0.00 | 0.00 | 0.00 | 84 | 1020.4 |
| 20260502010001 | 11 | 182 | 0.0 | 1.6 | 0.00 | 0.00 | 0.00 | 85 | 1020.5 |
| 20260502005502 | 11 | 182 | 0.0 | 1.6 | 0.00 | 0.00 | 0.00 | 85 | 1020.6 |
| 20260502005002 | 11 | 182 | 0.0 | 1.6 | 0.00 | 0.00 | 0.00 | 85 | 1020.5 |
| 20260502004502 | 11 | 182 | 0.0 | 1.6 | 0.00 | 0.00 | 0.00 | 85 | 1020.4 |
| 20260502004002 | 11 | 0 | 0.0 | 0.0 | 0.00 | 0.00 | 0.00 | 85 | 1020.4 |
| 20260502003502 | 11 | 0 | 0.0 | 0.0 | 0.00 | 0.00 | 0.00 | 85 | 1020.5 |
| 20260502003002 | 11 | 0 | 0.0 | 0.0 | 0.00 | 0.00 | 0.00 | 85 | 1020.5 |
| 20260502002502 | 11 | 0 | 0.0 | 0.0 | 0.00 | 0.00 | 0.00 | 85 | 1020.5 |
| 20260502002002 | 11 | 0 | 0.0 | 0.0 | 0.00 | 0.00 | 0.00 | 85 | 1020.7 |
| 20260502001523 | 11 | 0 | 0.0 | 0.0 | 0.00 | 0.00 | 0.00 | 85 | 1020.8 |
| 20260502001002 | 12 | 0 | 0.0 | 0.0 | 0.00 | 0.00 | 0.00 | 85 | 1020.8 |
| 20260502000501 | 12 | 0 | 0.0 | 0.0 | 0.00 | 0.00 | 0.00 | 85 | 1020.8 |
| 20260502000001 | 12 | 181 | 0.0 | 1.6 | 0.00 | 0.00 | 0.00 | 85 | 1020.8 |
| 20260501235523 | 12 | 181 | 0.0 | 1.6 | 0.00 | 0.00 | 0.00 | 85 | 1020.9 |
| 20260501235002 | 12 | 181 | 0.0 | 3.2 | 0.00 | 0.00 | 0.00 | 85 | 1020.8 |
| 20260501234502 | 12 | 181 | 1.6 | 4.8 | 0.00 | 0.00 | 0.00 | 85 | 1020.8 |
| 20260501234002 | 12 | 182 | 0.0 | 4.8 | 0.00 | 0.00 | 0.00 | 85 | 1021.0 |
| 20260501233502 | 12 | 181 | 0.0 | 4.8 | 0.00 | 0.00 | 0.00 | 85 | 1020.9 |
| 20260501233002 | 12 | 181 | 0.0 | 4.8 | 0.00 | 0.00 | 0.00 | 85 | 1021.0 |
| 20260501232502 | 12 | 178 | 0.0 | 3.2 | 0.00 | 0.00 | 0.00 | 85 | 1021.0 |
| 20260501232002 | 12 | 178 | 0.0 | 3.2 | 0.00 | 0.00 | 0.00 | 85 | 1021.1 |
| 20260501231502 | 12 | 172 | 1.6 | 6.4 | 0.00 | 0.00 | 0.00 | 85 | 1021.1 |
| 20260501231002 | 12 | 160 | 3.2 | 6.4 | 0.00 | 0.00 | 0.00 | 85 | 1021.1 |
| 20260501230501 | 12 | 161 | 1.6 | 6.4 | 0.00 | 0.00 | 0.00 | 85 | 1021.1 |
| 20260501230002 | 12 | 176 | 3.2 | 6.4 | 0.00 | 0.00 | 0.00 | 85 | 1021.2 |
| 20260501225502 | 12 | 187 | 3.2 | 8.0 | 0.00 | 0.00 | 0.00 | 85 | 1021.2 |
| 20260501225002 | 12 | 205 | 3.2 | 8.0 | 0.00 | 0.00 | 0.00 | 85 | 1021.1 |
| 20260501224502 | 12 | 218 | 3.2 | 8.0 | 0.00 | 0.00 | 0.00 | 85 | 1021.1 |
| 20260501224023 | 12 | 229 | 4.8 | 9.7 | 0.00 | 0.00 | 0.00 | 85 | 1021.1 |
| 20260501223502 | 12 | 225 | 3.2 | 9.7 | 0.00 | 0.00 | 0.00 | 85 | 1021.2 |
| 20260501223002 | 12 | 219 | 3.2 | 8.0 | 0.00 | 0.00 | 0.00 | 86 | 1021.1 |
| 20260501222502 | 12 | 230 | 1.6 | 6.4 | 0.00 | 0.00 | 0.00 | 86 | 1021.2 |
| 20260501222023 | 12 | 210 | 3.2 | 8.0 | 0.00 | 0.00 | 0.00 | 85 | 1021.3 |
| 20260501221502 | 12 | 202 | 3.2 | 8.0 | 0.00 | 0.00 | 0.00 | 85 | 1021.4 |
| 20260501221002 | 12 | 217 | 3.2 | 6.4 | 0.00 | 0.00 | 0.00 | 85 | 1021.4 |
| 20260501220502 | 12 | 221 | 3.2 | 12.9 | 0.00 | 0.00 | 0.00 | 85 | 1021.4 |
| 20260501220002 | 12 | 214 | 4.8 | 12.9 | 0.00 | 0.00 | 0.00 | 85 | 1021.3 |
| 20260501215502 | 12 | 217 | 4.8 | 11.3 | 0.00 | 0.00 | 0.00 | 85 | 1021.4 |
| 20260501215002 | 12 | 226 | 4.8 | 11.3 | 0.00 | 0.00 | 0.00 | 85 | 1021.4 |
| 20260501214502 | 12 | 225 | 4.8 | 9.7 | 0.00 | 0.00 | 0.00 | 85 | 1021.4 |
| 20260501214002 | 12 | 214 | 4.8 | 11.3 | 0.00 | 0.00 | 0.00 | 85 | 1021.4 |
| 20260501213501 | 12 | 208 | 4.8 | 11.3 | 0.00 | 0.00 | 0.00 | 85 | 1021.4 |
| 20260501213002 | 12 | 214 | 3.2 | 9.7 | 0.00 | 0.00 | 0.00 | 85 | 1021.4 |
| 20260501212502 | 12 | 220 | 3.2 | 8.0 | 0.00 | 0.00 | 0.00 | 85 | 1021.4 |
| 20260501212002 | 12 | 230 | 3.2 | 6.4 | 0.00 | 0.00 | 0.00 | 85 | 1021.5 |
| 20260501211523 | 12 | 243 | 3.2 | 6.4 | 0.00 | 0.00 | 0.00 | 85 | 1021.4 |
| 20260501211002 | 12 | 240 | 4.8 | 11.3 | 0.00 | 0.00 | 0.00 | 84 | 1021.4 |
| 20260501210502 | 12 | 230 | 4.8 | 11.3 | 0.00 | 0.00 | 0.00 | 84 | 1021.3 |
| 20260501210002 | 12 | 212 | 3.2 | 8.0 | 0.00 | 0.00 | 0.00 | 84 | 1021.3 |
| 20260501205523 | 12 | 193 | 3.2 | 9.7 | 0.00 | 0.00 | 0.00 | 84 | 1021.4 |
| 20260501205001 | 12 | 204 | 3.2 | 9.7 | 0.00 | 0.00 | 0.00 | 84 | 1021.4 |
| 20260501204502 | 12 | 209 | 3.2 | 8.0 | 0.00 | 0.00 | 0.00 | 84 | 1021.3 |
| 20260501204002 | 12 | 197 | 3.2 | 8.0 | 0.00 | 0.00 | 0.00 | 84 | 1021.4 |
| 20260501203502 | 12 | 207 | 1.6 | 6.4 | 0.00 | 0.00 | 0.00 | 84 | 1021.4 |
| 20260501203002 | 12 | 216 | 1.6 | 6.4 | 0.00 | 0.00 | 0.00 | 84 | 1021.4 |
| 20260501202523 | 12 | 213 | 1.6 | 6.4 | 0.00 | 0.00 | 0.00 | 83 | 1021.4 |
| 20260501202023 | 12 | 209 | 1.6 | 4.8 | 0.00 | 0.00 | 0.00 | 83 | 1021.3 |
| 20260501201502 | 12 | 208 | 3.2 | 6.4 | 0.00 | 0.00 | 0.00 | 83 | 1021.3 |
| 20260501201002 | 12 | 209 | 3.2 | 6.4 | 0.00 | 0.00 | 0.00 | 83 | 1021.3 |
| 20260501200502 | 12 | 215 | 1.6 | 6.4 | 0.00 | 0.00 | 0.00 | 82 | 1021.3 |
| 20260501200002 | 12 | 228 | 3.2 | 6.4 | 0.00 | 0.00 | 0.00 | 82 | 1021.2 |
| 20260501195502 | 12 | 233 | 1.6 | 6.4 | 0.00 | 0.00 | 0.00 | 82 | 1021.3 |
| 20260501195002 | 12 | 227 | 1.6 | 8.0 | 0.00 | 0.00 | 0.00 | 82 | 1021.2 |
| 20260501194502 | 12 | 219 | 3.2 | 8.0 | 0.00 | 0.00 | 0.00 | 82 | 1021.2 |
| 20260501194002 | 12 | 225 | 3.2 | 6.4 | 0.00 | 0.00 | 0.00 | 82 | 1021.3 |
| 20260501193502 | 12 | 231 | 3.2 | 8.0 | 0.00 | 0.00 | 0.00 | 81 | 1021.3 |
| 20260501193002 | 12 | 222 | 3.2 | 8.0 | 0.00 | 0.00 | 0.00 | 81 | 1021.2 |
| 20260501192502 | 12 | 216 | 3.2 | 8.0 | 0.00 | 0.00 | 0.00 | 81 | 1021.2 |
| 20260501192002 | 12 | 217 | 3.2 | 8.0 | 0.00 | 0.00 | 0.00 | 81 | 1021.2 |
| 20260501191502 | 12 | 218 | 4.8 | 8.0 | 0.00 | 0.00 | 0.00 | 80 | 1021.1 |
| 20260501191002 | 13 | 231 | 3.2 | 8.0 | 0.00 | 0.00 | 0.00 | 80 | 1021.1 |
| 20260501190502 | 13 | 244 | 3.2 | 6.4 | 0.00 | 0.00 | 0.00 | 80 | 1021.1 |
| 20260501190023 | 13 | 222 | 3.2 | 8.0 | 0.00 | 0.00 | 0.00 | 80 | 1021.0 |
| 20260501185502 | 13 | 222 | 3.2 | 9.7 | 0.00 | 0.00 | 0.00 | 80 | 1021.1 |
| 20260501185002 | 13 | 227 | 4.8 | 12.9 | 0.00 | 0.00 | 0.00 | 79 | 1021.1 |
| 20260501184502 | 13 | 224 | 4.8 | 12.9 | 0.00 | 0.00 | 0.00 | 79 | 1021.1 |
| 20260501184002 | 13 | 218 | 3.2 | 9.7 | 0.00 | 0.00 | 0.00 | 79 | 1021.0 |
| 20260501183502 | 13 | 208 | 3.2 | 9.7 | 0.00 | 0.00 | 0.00 | 78 | 1021.0 |
| 20260501183002 | 13 | 207 | 4.8 | 12.9 | 0.00 | 0.00 | 0.00 | 78 | 1021.1 |
| 20260501182502 | 13 | 209 | 6.4 | 12.9 | 0.00 | 0.00 | 0.00 | 77 | 1021.1 |
| 20260501182002 | 13 | 204 | 6.4 | 12.9 | 0.00 | 0.00 | 0.00 | 77 | 1021.1 |
| 20260501181502 | 13 | 201 | 6.4 | 14.5 | 0.00 | 0.00 | 0.00 | 76 | 1021.2 |
| 20260501181002 | 13 | 203 | 6.4 | 14.5 | 0.00 | 0.00 | 0.00 | 76 | 1021.2 |
| 20260501180502 | 14 | 205 | 6.4 | 14.5 | 0.00 | 0.00 | 0.00 | 75 | 1021.1 |
| 20260501180002 | 14 | 207 | 6.4 | 14.5 | 0.00 | 0.00 | 0.00 | 75 | 1021.1 |
| 20260501175502 | 14 | 208 | 4.8 | 14.5 | 0.00 | 0.00 | 0.00 | 74 | 1021.1 |
| 20260501175002 | 14 | 205 | 6.4 | 16.1 | 0.00 | 0.00 | 0.00 | 74 | 1021.1 |
| 20260501174502 | 15 | 211 | 8.0 | 19.3 | 0.00 | 0.00 | 0.00 | 73 | 1021.1 |
| 20260501174002 | 15 | 220 | 8.0 | 19.3 | 0.00 | 0.00 | 0.00 | 73 | 1021.0 |
| 20260501173502 | 15 | 221 | 6.4 | 14.5 | 0.00 | 0.00 | 0.00 | 73 | 1021.0 |
| 20260501173002 | 15 | 211 | 6.4 | 14.5 | 0.00 | 0.00 | 0.00 | 73 | 1021.1 |
| 20260501172002 | 16 | 201 | 6.4 | 16.1 | 0.00 | 0.00 | 0.00 | 72 | 1021.1 |
| 20260501171502 | 16 | 201 | 6.4 | 16.1 | 0.00 | 0.00 | 0.00 | 72 | 1021.1 |
| 20260501171023 | 16 | 201 | 6.4 | 14.5 | 0.00 | 0.00 | 0.00 | 72 | 1021.1 |
| 20260501170523 | 16 | 210 | 6.4 | 14.5 | 0.00 | 0.00 | 0.00 | 71 | 1021.0 |
| 20260501170002 | 16 | 211 | 6.4 | 14.5 | 0.00 | 0.00 | 0.00 | 71 | 1021.1 |
| 20260501165523 | 16 | 195 | 8.0 | 17.7 | 0.00 | 0.00 | 0.00 | 70 | 1021.1 |
| 20260501165002 | 17 | 198 | 8.0 | 17.7 | 0.00 | 0.00 | 0.00 | 69 | 1021.2 |
| 20260501164502 | 17 | 203 | 6.4 | 16.1 | 0.00 | 0.00 | 0.00 | 68 | 1021.2 |
| 20260501164002 | 17 | 204 | 8.0 | 16.1 | 0.00 | 0.00 | 0.00 | 68 | 1021.2 |
| 20260501163502 | 18 | 208 | 8.0 | 16.1 | 0.00 | 0.00 | 0.00 | 68 | 1021.2 |
| 20260501163002 | 18 | 203 | 6.4 | 17.7 | 0.00 | 0.00 | 0.00 | 69 | 1021.2 |
| 20260501162502 | 17 | 197 | 6.4 | 17.7 | 0.00 | 0.00 | 0.00 | 70 | 1021.2 |
| 20260501162002 | 17 | 198 | 8.0 | 16.1 | 0.00 | 0.00 | 0.00 | 69 | 1021.1 |
| 20260501161502 | 17 | 205 | 6.4 | 12.9 | 0.00 | 0.00 | 0.00 | 69 | 1021.2 |